Regional Weather Roundup
Issued by NWS

Home | Current Version | Previous Version | Graphics & Text | Print | Product List | Glossary On
Versions: 1 2 3 4 5 6 7 8 9 10 11 12 13 14 15 16 17 18 19 20 21 22 23 24 25 26 27 28 29 30 31 32 33 34 35 36 37 38 39 40 41 42 43 44 45 46 47 48 49 50
000
ASUS43 KLOT 220308
RWRIL

ILLINOIS REGIONAL WEATHER ROUNDUP
NATIONAL WEATHER SERVICE CHICAGO/ROMEOVILLE IL
900 PM CST TUE FEB 21 2017

NOTE: "FAIR" INDICATES FEW OR NO CLOUDS BELOW 12,000 FEET WITH NO
SIGNIFICANT WEATHER AND/OR OBSTRUCTIONS TO VISIBILITY.

* THESE STATIONS ARE NOT UNDER NWS QUALITY CONTROL. THEY ALSO MAY NOT
  REPORT WEATHER SUCH AS PRECIPITATION OR FOG.

ILZ001-002-007-009-015-016-024-220400-
NORTHWEST ILLINOIS

CITY           SKY/WX    TMP DP  RH WIND       PRES   REMARKS
MOLINE         CLEAR     46  41  82 CALM      29.87S
STERLING*      CLEAR     54  51  90 SE3       29.88S
SAVANNA*       CLEAR     43  40  90 CALM      29.86F
$$

ILZ003-004-008-010-011-017-018-220400-
NORTH CENTRAL ILLINOIS

CITY           SKY/WX    TMP DP  RH WIND       PRES   REMARKS
ROCKFORD       PTCLDY    50  43  77 S5        29.89S
FREEPORT*      CLEAR     45  40  83 S8        29.89S
ROCHELLE*      PTCLDY    48  46  95 S7        29.88F
DE KALB*       CLOUDY    50  49  95 SW6       29.89S
PERU*          CLOUDY    52  50  93 S3        29.89S
$$

ILZ005-006-012>014-019>023-220400-
NORTHEAST ILLINOIS

CITY           SKY/WX    TMP DP  RH WIND       PRES   REMARKS
CHICAGO-OHARE  MOCLDY    58  53  84 S9        29.88F
CHICAGO-MIDWAY CLOUDY    60  53  77 S8        29.89F
AURORA         PTCLDY    53  51  93 S6        29.89S FOG
LANSING*       PTCLDY    53  52  97 S6        29.91F
JOLIET*        PTCLDY    53  53  99 CALM      29.89F FOG
WAUKEGAN       MOCLDY    43  42  97 CALM      29.88R FOG
DUPAGE AIRPORT PTCLDY    51  49  92 S5        29.88S FOG
KANKAKEE*      CLOUDY    51  50  98 CALM      29.91F
WHEELING       MOCLDY    51  48  89 S5        29.89F
MORRIS*        PTCLDY    55  53  94 CALM      29.88F FOG
ROMEOVILLE*    CLOUDY    53  53 100 S5        29.89F FOG
NORTHERLY ISL    N/A     45  44  97 SE8         N/A
$$

LMZ740>746-220400-
SOUTHERN LAKE MICHIGAN

STATION/POSITION SKY/WX   TEMP    WIND        PRES    VSBY  WAVE
                          AIR SEA DIR/SP/G                  HT/PER
                          (F)     (DEG/KT/KT) (MB)    (MI)  (FT/S)
HARRISON CRIB              50     160/ 12/ 13   N/A
BURNHAM HARBOR             44     150/  7/  8   N/A
CALUMET HARBOR             54     170/  2/  4 1012.0F
BURNS HARBOR               57     180/  7/ 10 1013.5R
MICHIGAN CITY              58     160/  9/ 11   N/A
$$

ILZ025>027-034>036-040-047-049-050-058-095>099-220400-
WEST-CENTRAL ILLINOIS

CITY           SKY/WX    TMP DP  RH WIND       PRES   REMARKS
QUINCY         CLOUDY    58  57  97 S5        29.89S
GALESBURG*     CLEAR     51  51  98 S3        29.89S
MACOMB*        CLOUDY    55  54  97 S8        29.90F
JACKSONVILLE*  PTCLDY    57  56  97 SE6       29.90F FOG
PITTSFIELD*    FOG       55  55 100 S3        29.90F VSB<1/4
$$

ILZ028>032-037-038-041>044-048-051>054-059>061-220400-
CENTRAL ILLINOIS

CITY           SKY/WX    TMP DP  RH WIND       PRES   REMARKS
PONTIAC        CLOUDY    55  55  98 CALM      29.91F
BLOOMINGTON    CLOUDY    57  55  93 S8        29.92F
DECATUR        CLOUDY    54  52  93 E5        29.92F FOG
PEORIA         PTCLDY    57  55  93 SW3       29.89F
LACON*         PTCLDY    57  55  91 S6        29.88F
LINCOLN*       PTCLDY    58  58  99 S3        29.91F FOG
SPRINGFIELD    CLOUDY    59  56  89 SE7       29.91F FOG
TAYLORVILLE    FOG       52  52  99 CALM      29.93S VSB 1/2
$$

ILZ033-039-045-046-055>057-062-063-220400-
EAST-CENTRAL ILLINOIS

CITY           SKY/WX    TMP DP  RH WIND       PRES   REMARKS
CHAMPAIGN      PTCLDY    54  52  93 S5        29.93F FOG
RANTOUL*       CLOUDY    58  55  90 S5        29.93S
MATTOON        PTCLDY    55  53  93 CALM      29.92F
PARIS*         CLOUDY    52  51  97 CALM      29.95S
$$

ILZ079-100>102-220400-
SOUTHWEST ILLINOIS

CITY           SKY/WX    TMP DP  RH WIND       PRES   REMARKS
ALTON          MOCLDY    52  50  93 E6        29.93R
BELLEVILLE     CLOUDY    54  54 100 CALM      29.90F
CAHOKIA*       CLOUDY    54  50  86 CALM      29.91S
SPARTA*        CLOUDY    57  53  89 CALM      29.93R
$$

ILZ064>066-069>071-074>076-080>082-084>086-088>090-092>094-220400-
SOUTH-CENTRAL ILLINOIS

CITY           SKY/WX    TMP DP  RH WIND       PRES   REMARKS
CARBONDALE     CLOUDY    57  55  93 SE5       29.92R
CAIRO*         CLOUDY    56  55  97 CALM      29.92S
EFFINGHAM*     PTCLDY    52  52 100 CALM      29.94F FOG
MARION         LGT RAIN  61  57  88 N6        29.94R
MT. VERNON     CLOUDY    57  54  89 N5        29.93R
CENTRALIA*     CLOUDY    58  55  89 CALM      29.92S
SALEM*         CLOUDY    56  53  88 CALM      29.93R
METROPOLIS*    CLOUDY    57  56  94 CALM      29.93S
$$

ILZ067-068-072-073-078-083-087-091-220400-
SOUTHEAST ILLINOIS

CITY           SKY/WX    TMP DP  RH WIND       PRES   REMARKS
LAWRENCEVILLE  CLOUDY    56  55  97 E8        29.93F FOG
FLORA*         CLOUDY    56  54  94 CALM      29.94R
FAIRFIELD*     CLOUDY    56  55  94 CALM      29.92S
HARRISBURG*    CLOUDY    56  55  97 NE3       29.92S
ROBINSON*      CLOUDY    55  54  94 SE7       29.94F
CARMI*         CLOUDY    56  54  92 CALM      29.92S
$$

ABBREVIATIONS USED IN REMARKS
   TC - TEMPERATURE IN CELSIUS
  WCI - WIND CHILL INDEX
   HX - HEAT INDEX
  VSB - VISIBILITY
$$





USA.gov is the U.S. government's official web portal to all federal, state and local government web resources and services.